Thompson, Ohio, United States (44086)
Lat: 41.69N, Lon: 81.05W
Wx Zone: OHZ013
Local Info
Past Weather Observations for Wednesday, May 27, 2015

NOTE: This archive is for the closest National Weather Service station to Thompson. Information may differ from the station used for current weather conditions.

Click here for Long-term Archive

Time Weather Temperature Dewpoint Humidity Pressure Winds Precip Visibility
23:53
Overcast
63°F / 17°C 61°F / 16°C 94% 30.12 in
(1020 mb)
S 8.1 mph
(S 13 kph)
0.00 in
(0.00 mm)
10SM
23:36
Overcast
63°F / 17°C 61°F / 16°C 94% 30.09 in
(1019 mb)
S 8.1 mph
(S 13 kph)
0.00 in
(0.00 mm)
10SM
23:21
Overcast
Thunder Storms
63°F / 17°C 61°F / 16°C 94% 30.12 in
(1020 mb)
S 6.9 mph
(S 11 kph)
0.00 in
(0.00 mm)
10SM
22:53
Overcast
Light Rain
63°F / 17°C 61°F / 16°C 94% 30.12 in
(1020 mb)
SW 6.9 mph
(SW 11 kph)
0.02 in
(0.51 mm)
8SM
21:53
Overcast
Rain
63°F / 17°C 61°F / 16°C 94% 30.09 in
(1019 mb)
S 11.5 mph
(S 19 kph)
0.13 in
(3.30 mm)
5SM
20:53
Overcast
Rain
63°F / 17°C 61°F / 16°C 94% 30.09 in
(1019 mb)
SSW 10.4 mph
(SSW 17 kph)
0.09 in
(2.29 mm)
4SM
20:34
Overcast
Rain
64°F / 18°C 61°F / 16°C 88% 30.09 in
(1019 mb)
SSW 9.2 mph
(SSW 15 kph)
0.03 in
(0.76 mm)
5SM
20:19
Mostly Cloudy
Thunder Storms
64°F / 18°C 61°F / 16°C 88% 30.09 in
(1019 mb)
Variable 6.9 mph
(Variable 11 kph)
0.00 in
(0.00 mm)
8SM
19:53
Overcast
Light Rain
64°F / 18°C 61°F / 16°C 88% 30.09 in
(1019 mb)
W 5.8 mph
(W 9 kph)
0.01 in
(0.25 mm)
6SM
19:15
Overcast
Light Rain
63°F / 17°C 61°F / 16°C 94% 30.06 in
(1018 mb)
S 9.2 mph
(S 15 kph)
0.00 in
(0.00 mm)
7SM
19:00
Overcast
Thunder Storms
63°F / 17°C 61°F / 16°C 94% 30.09 in
(1019 mb)
S 6.9 mph
(S 11 kph)
0.00 in
(0.00 mm)
4SM
18:53
Overcast
Light Rain
63°F / 17°C 61°F / 16°C 94% 30.09 in
(1019 mb)
S 3.5 mph
(S 6 kph)
0.48 in
(12.19 mm)
3SM
18:46
Overcast
Rain
63°F / 17°C 61°F / 16°C 94% 30.09 in
(1019 mb)
Calm 0.47 in
(11.94 mm)
3SM
18:37
Overcast
Thunder Storms
63°F / 17°C 61°F / 16°C 94% 30.09 in
(1019 mb)
SSW 5.8 mph
(SSW 9 kph)
0.46 in
(11.68 mm)
4SM
18:28
Overcast
Thunder Storms
63°F / 17°C 61°F / 16°C 94% 30.09 in
(1019 mb)
WNW 5.8 mph
(WNW 9 kph)
0.45 in
(11.43 mm)
2SM
18:21
Overcast
Thunder Storms
63°F / 17°C 61°F / 16°C 94% 30.09 in
(1019 mb)
W 5.8 mph
(W 9 kph)
0.44 in
(11.18 mm)
1SM
18:13
Overcast
Thunder Storms
63°F / 17°C 61°F / 16°C 94% 30.12 in
(1020 mb)
W 13.8 mph
(W 22 kph)
0.35 in
(8.89 mm)
2SM
18:09
Overcast
Thunder Storms
63°F / 17°C 61°F / 16°C 94% 30.09 in
(1019 mb)
W 15 mph
(W 24 kph)
0.31 in
(7.87 mm)
1SM
18:03
Overcast
Thunder Storms
63°F / 17°C 61°F / 16°C 94% 30.09 in
(1019 mb)
WNW 17.3 mph
(WNW 28 kph)
0.30 in
(7.62 mm)
1/2SM
17:59
Overcast
Heavy Rain
64°F / 18°C 61°F / 16°C 88% 30.09 in
(1019 mb)
NW 15 mph
(NW 24 kph)
0.21 in
(5.33 mm)
3/4SM
17:56
Overcast
Heavy Rain
64°F / 18°C 61°F / 16°C 88% 30.12 in
(1020 mb)
W 13.8 mph
(W 22 kph)
0.08 in
(2.03 mm)
1 3/4SM
17:53
Overcast
Light Rain
66°F / 19°C 59°F / 15°C 78% 30.09 in
(1019 mb)
W 15 mph
(W 24 kph)
0.05 in
(1.27 mm)
4SM
17:32
Mostly Cloudy
Thunder Storms
66°F / 19°C 57°F / 14°C 73% 30.06 in
(1018 mb)
NNW 15 mph
(NNW 24 kph)
- 10SM
16:53
Partly Cloudy
81°F / 27°C 61°F / 16°C 51% 30.04 in
(1017 mb)
SW 15 mph
(SW 24 kph)
- 10SM
15:53
Partly Cloudy
81°F / 27°C 61°F / 16°C 51% 30.04 in
(1017 mb)
SW 15 mph
(SW 24 kph)
- 10SM
14:53
Partly Cloudy
81°F / 27°C 61°F / 16°C 51% 30.04 in
(1017 mb)
SSE 15 mph
(SSE 24 kph)
- 10SM
13:53
Mostly Cloudy
79°F / 26°C 61°F / 16°C 54% 30.06 in
(1018 mb)
SW 18.4 mph
(SW 30 kph)
- 10SM
12:53
Partly Cloudy
79°F / 26°C 63°F / 17°C 58% 30.06 in
(1018 mb)
SW 18.4 mph
(SW 30 kph)
- 10SM
11:53
Partly Cloudy
77°F / 25°C 63°F / 17°C 61% 30.09 in
(1019 mb)
SW 12.7 mph
(SW 20 kph)
- 10SM
10:53
Mostly Cloudy
75°F / 24°C 63°F / 17°C 65% 30.09 in
(1019 mb)
SW 11.5 mph
(SW 19 kph)
- 10SM
09:53
Mostly Cloudy
72°F / 22°C 63°F / 17°C 73% 30.09 in
(1019 mb)
SW 10.4 mph
(SW 17 kph)
- 10SM
08:53
Partly Cloudy
73°F / 23°C 64°F / 18°C 74% 30.09 in
(1019 mb)
SW 12.7 mph
(SW 20 kph)
- 10SM
08:25
Partly Cloudy
72°F / 22°C 64°F / 18°C 78% 30.09 in
(1019 mb)
SW 12.7 mph
(SW 20 kph)
- 10SM
07:53
Mostly Cloudy
70°F / 21°C 64°F / 18°C 83% 30.09 in
(1019 mb)
SW 11.5 mph
(SW 19 kph)
- 10SM
07:00
Partly Cloudy
66°F / 19°C 64°F / 18°C 94% 30.06 in
(1018 mb)
SSE 9.2 mph
(SSE 15 kph)
- 10SM
06:53
Mostly Cloudy
66°F / 19°C 64°F / 18°C 94% 30.06 in
(1018 mb)
SSE 11.5 mph
(SSE 19 kph)
- 10SM
06:23
Partly Cloudy
66°F / 19°C 64°F / 18°C 94% 30.06 in
(1018 mb)
SSE 11.5 mph
(SSE 19 kph)
- 10SM
05:53
Clear
66°F / 19°C 64°F / 18°C 94% 30.06 in
(1018 mb)
SSE 9.2 mph
(SSE 15 kph)
- 10SM
04:53
Clear
66°F / 19°C 64°F / 18°C 94% 30.04 in
(1017 mb)
SSE 8.1 mph
(SSE 13 kph)
- 10SM
03:53
Partly Cloudy
66°F / 19°C 64°F / 18°C 94% 30.04 in
(1017 mb)
SW 10.4 mph
(SW 17 kph)
- 10SM
03:18
Mostly Cloudy
66°F / 19°C 64°F / 18°C 94% 30.04 in
(1017 mb)
SW 12.7 mph
(SW 20 kph)
- 10SM
02:53
Overcast
66°F / 19°C 64°F / 18°C 94% 30.04 in
(1017 mb)
SSE 11.5 mph
(SSE 19 kph)
- 10SM
02:21
Mostly Cloudy
68°F / 20°C 64°F / 18°C 88% 30.04 in
(1017 mb)
SSE 12.7 mph
(SSE 20 kph)
- 10SM
01:53
Mostly Cloudy
68°F / 20°C 64°F / 18°C 88% 30.04 in
(1017 mb)
SSE 12.7 mph
(SSE 20 kph)
0.00 in
(0.00 mm)
10SM
00:53
Partly Cloudy
Light Rain
66°F / 19°C 66°F / 19°C 100% 30.01 in
(1016 mb)
SSE 9.2 mph
(SSE 15 kph)
0.00 in
(0.00 mm)
10SM
Time Weather Temperature Dewpoint Humidity Pressure Winds Precip Visibility


Weather for websites

WeatherForYou.com, LLC is not responsible for any damages or problems caused by this service. Current weather conditions are obtained from the closest station including government and personal stations which may have varying degrees of accuracy. Weather forecasts are derived from the NOAA NDFD. Like all things, this site belongs to Jesus Christ... He just trusts us to maintain it. If you have any questions or comments email webmaster@weatherforyou.com

Copyright © 2015, WeatherForYou.com LLC. All rights reserved.